Starlink 31487

operational
NORAD ID: 59297 Int'l Des: 2024-056 Owner: SPXS Country: US Constellation: starlink
LEOCIRCULAR

关于 Starlink 31487

正在加载描述...

实时位置

正在加载3D地球...

即将过境

高度历史

Altitude vs Time

uPlot chart will show altitude changes over time

两行轨道根数

1 59297U 24056B 25259.05418795 .00005795 00000-0 21985-3 0 9995
2 59297 43.0041 137.1722 0002333 266.3901 93.6684 15.27596239 84565
Epoch: Sep 16, 2025 • Age: 19 hours

当前状态

高度 493.8 km
速度 7.62 km/s
星下点 -40.71°S, 133.02°E
发射日期 Mar 24, 2024
运行时间 1.4 years
类型 internet

技术详情

分类 Payload
质量 730.00 kg
干质量 700.00 kg
总质量 730.00 kg
长度 0.30 m
直径 4.10 m
跨度 29.00 m
形状 Box + pan
制造商 SPXS
平台类型 Starlink V2M
阶段状态 In Orbit
所有者/国家 SPXS/US

大型星座

Loading constellations...